DW1188 Weather Reports


Display with metric or nautical units.
time (UTC)temp
F
wind
direction
speed
MPH
gust
MPH
rain 1hr
in
rain 24hr
in
rain mn
in
humidity
%
barometer
mb
20260505231149 71 67 0.0 11.0 0.00 0.00 0.00 27 1013.0
20260505225946 70 56 1.0 4.0 0.00 0.00 0.00 27 1013.1
20260505224753 70 94 0.0 1.0 0.00 0.00 0.00 26 1013.2
20260505222226 69 41 1.0 6.0 0.00 0.00 0.00 28 1013.4
20260505221025 70 333 0.0 4.0 0.00 0.00 0.00 29 1013.4
20260505215758 69 319 3.0 13.0 0.00 0.00 0.00 27 1013.5
20260505214532 69 348 3.0 13.0 0.00 0.00 0.00 29 1013.6
20260505213348 69 19 4.0 17.0 0.00 0.00 0.00 28 1013.5
20260505212125 69 63 4.0 17.0 0.00 0.00 0.00 28 1013.7
20260505210934 69 335 2.0 12.0 0.00 0.00 0.00 30 1013.7
20260505204314 68 334 0.0 6.0 0.00 0.00 0.00 31 1013.9
20260505203134 68 13 1.0 0.0 0.00 0.00 0.00 31 1013.9
20260505201909 68 25 0.0 0.0 0.00 0.00 0.00 31 1013.9
20260505200638 68 331 0.0 7.0 0.00 0.00 0.00 32 1013.9
20260505192821 67 348 0.0 4.0 0.00 0.00 0.00 32 1014.0
20260505191605 67 33 0.0 0.0 0.00 0.00 0.00 33 1014.0
20260505185144 66 15 0.0 9.0 0.00 0.00 0.00 33 1014.2
20260505183930 66 192 0.0 0.0 0.00 0.00 0.00 35 1014.2
20260505182720 66 26 0.0 9.0 0.00 0.00 0.00 32 1014.3
20260505181509 66 40 0.0 0.0 0.00 0.00 0.00 32 1014.4
20260505180247 65 51 0.0 0.0 0.00 0.00 0.00 32 1014.5
20260505173653 65 121 0.0 3.0 0.00 0.00 0.00 34 1014.7
20260505172457 64 64 0.0 0.0 0.00 0.00 0.00 34 1014.7
20260505165927 63 54 0.0 5.0 0.00 0.00 0.00 37 1014.8
20260505164744 63 90 0.0 0.0 0.00 0.00 0.00 35 1014.9
20260505163609 62 46 0.0 0.0 0.00 0.00 0.00 35 1014.9
20260505162416 61 67 0.0 1.0 0.00 0.00 0.00 41 1014.9
20260505152311 58 28 0.0 0.0 0.00 0.00 0.00 50 1014.8
20260505151108 57 12 0.0 1.0 0.00 0.00 0.00 50 1014.8
20260505123100 50 40 0.0 0.0 0.00 0.00 0.00 62 1013.4
20260505121827 50 17 0.0 0.0 0.00 0.00 0.00 61 1013.4
20260505120603 50 30 0.0 2.0 0.00 0.00 0.00 61 1013.3
20260505115349 50 42 0.0 2.0 0.00 0.00 0.00 61 1013.2
20260505114201 51 13 0.0 0.0 0.00 0.00 0.00 60 1013.1
20260505113003 51 19 0.0 0.0 0.00 0.00 0.00 59 1013.1
20260505110528 52 36 0.0 0.0 0.00 0.00 0.00 58 1013.0
20260505101500 53 32 1.0 9.0 0.00 0.00 0.00 56 1012.7
20260505100243 53 32 1.0 10.0 0.00 0.00 0.00 57 1012.5
20260505093808 54 33 0.0 0.0 0.00 0.00 0.00 57 1012.3
20260505092541 54 5 0.0 0.0 0.00 0.00 0.00 58 1012.2
20260505091308 53 17 0.0 1.0 0.00 0.00 0.00 59 1012.1
20260505090051 53 29 0.0 0.0 0.00 0.00 0.00 59 1012.0
20260505084838 54 5 0.0 8.0 0.00 0.00 0.00 58 1011.9
20260505083634 55 29 0.0 0.0 0.00 0.00 0.00 57 1011.8
20260505082419 55 5 0.0 5.0 0.00 0.00 0.00 57 1011.7
20260505081248 55 0 0.0 8.0 0.00 0.00 0.00 56 1011.7
20260505080011 56 44 0.0 8.0 0.00 0.00 0.00 56 1011.6
20260505074732 56 23 0.0 1.0 0.00 0.00 0.00 54 1011.6
20260505073510 57 19 0.0 0.0 0.00 0.00 0.00 53 1011.5
20260505072242 57 16 0.0 0.0 0.00 0.00 0.00 52 1011.3
20260505071034 58 38 0.0 0.0 0.00 0.00 0.00 51 1011.1
20260505065840 58 16 0.0 0.0 0.00 0.00 0.00 51 1010.9
20260505064653 59 11 0.0 0.0 0.00 0.00 0.00 50 1010.7
20260505063516 59 338 0.0 1.0 0.00 0.00 0.00 49 1010.7
20260505062324 59 24 0.0 0.0 0.00 0.00 0.00 49 1010.7
20260505061055 59 38 0.0 0.0 0.00 0.00 0.00 49 1010.6
20260505055840 59 5 0.0 0.0 0.00 0.00 0.00 49 1010.5
20260505054609 59 5 0.0 0.0 0.00 0.00 0.00 50 1010.5
20260505052007 63 38 0.0 0.0 0.00 0.00 0.00 44 1010.1
20260505050806 63 38 0.0 0.0 0.00 0.00 0.00 44 1010.1
20260505040617 66 39 0.0 0.0 0.00 0.00 0.00 40 1009.4
20260505035401 66 39 0.0 0.0 0.00 0.00 0.00 39 1009.2
20260505032900 67 34 0.0 0.0 0.00 0.00 0.00 37 1008.9
20260505031700 68 34 0.0 0.0 0.00 0.00 0.00 36 1008.9
20260505030453 69 26 0.0 0.0 0.00 0.00 0.00 35 1008.8
20260505025323 70 32 0.0 0.0 0.00 0.00 0.00 33 1008.7
20260505024136 71 11 0.0 0.0 0.00 0.00 0.00 33 1008.6
20260505022958 71 19 0.0 0.0 0.00 0.00 0.00 31 1008.5
20260505021814 72 30 0.0 6.0 0.00 0.00 0.00 30 1008.5
20260505015218 73 36 1.0 9.0 0.00 0.00 0.00 29 1008.5
20260505014029 73 13 0.0 0.0 0.00 0.00 0.00 28 1008.5
20260505012826 73 16 3.0 11.0 0.00 0.00 0.00 27 1008.6
20260505011637 74 11 1.0 6.0 0.00 0.00 0.00 27 1008.6
20260505010413 74 23 2.0 0.0 0.00 0.00 0.00 26 1008.7
20260505005143 74 14 2.0 17.0 0.00 0.00 0.00 25 1008.7
20260505002512 74 26 0.0 2.0 0.00 0.00 0.00 26 1008.6
20260505001312 74 33 0.0 7.0 0.00 0.00 0.00 26 1008.8
20260505000042 74 56 1.0 12.0 0.00 0.00 0.00 27 1008.8
20260504234851 74 27 4.0 13.0 0.00 0.00 0.00 25 1008.9
20260504233657 74 36 7.0 19.0 0.00 0.00 0.00 27 1008.7
20260504232526 75 43 1.0 6.0 0.00 0.00 0.00 28 1008.6